When you browse on this site, cookies collect data to enhance your experience and personalize the content and advertising you see.
Visit our Privacy Policy to learn more. By continuing to use the site, you agree to this use of cookies and data.
  • In Schweiz
  • Länderverzeichnis
  • Für 7 Tage
  • Wassertemperatur
  • Satellitenkarten
  • Wetterkarte
  • Widgets
  • user-avatar
    Anmelden

    Stündliche Wetter Jechegnadsor

    Heute, 25 April, Donnerstag

    Zeit Temperatur Niederschläge Wind Luftdruck Luftfeuchtigkeit
    00:00 +4°C° 0.1 mm 0 m/S 656 mmHg 67%
    01:00 +5°C° 0.1 mm 1 m/S 656 mmHg 68%
    02:00 +5°C° 0.1 mm 1 m/S 656 mmHg 69%
    03:00 +6°C° 0 mm 1 m/S 656 mmHg 71%
    04:00 +6°C° 0.2 mm 1 m/S 656 mmHg 72%
    05:00 +6°C° 0.2 mm 1 m/S 656 mmHg 72%
    06:00 +6°C° 0.2 mm 1 m/S 657 mmHg 73%
    07:00 +6°C° 0.1 mm 1 m/S 657 mmHg 69%
    08:00 +7°C° 0.1 mm 1 m/S 657 mmHg 66%
    09:00 +8°C° 0 mm 1 m/S 657 mmHg 62%
    10:00 +9°C° 0.1 mm 1 m/S 657 mmHg 60%
    11:00 +10°C° 0.1 mm 1 m/S 657 mmHg 58%
    12:00 +9°C° 0.1 mm 2 m/S 657 mmHg 57%
    13:00 +10°C° 0.2 mm 2 m/S 656 mmHg 55%
    14:00 +10°C° 0.2 mm 2 m/S 656 mmHg 53%
    15:00 +10°C° 0.2 mm 2 m/S 656 mmHg 51%
    16:00 +11°C° 0 mm 1 m/S 656 mmHg 52%
    17:00 +10°C° 0 mm 1 m/S 656 mmHg 52%
    18:00 +9°C° 0 mm 1 m/S 656 mmHg 52%
    19:00 +7°C° 0 mm 2 m/S 656 mmHg 55%
    20:00 +6°C° 0 mm 2 m/S 656 mmHg 58%
    21:00 +4°C° 0 mm 2 m/S 656 mmHg 62%
    22:00 +4°C° 0 mm 2 m/S 656 mmHg 62%
    23:00 +4°C° 0 mm 2 m/S 656 mmHg 62%

    Morgen, 26 April, Freitag

    Zeit Temperatur Niederschläge Wind Luftdruck Luftfeuchtigkeit
    00:00 +3°C° 0 mm 2 m/S 656 mmHg 63%
    01:00 +3°C° 0 mm 2 m/S 656 mmHg 63%
    02:00 +3°C° 0 mm 2 m/S 656 mmHg 64%
    03:00 +3°C° 0 mm 2 m/S 656 mmHg 64%
    04:00 +3°C° 0 mm 2 m/S 656 mmHg 63%
    05:00 +3°C° 0 mm 2 m/S 656 mmHg 61%
    06:00 +3°C° 0 mm 2 m/S 656 mmHg 60%
    07:00 +5°C° 0 mm 2 m/S 656 mmHg 56%
    08:00 +8°C° 0 mm 1 m/S 657 mmHg 52%
    09:00 +10°C° 0 mm 1 m/S 657 mmHg 49%
    10:00 +10°C° 0 mm 1 m/S 657 mmHg 50%
    11:00 +11°C° 0 mm 1 m/S 656 mmHg 51%
    12:00 +12°C° 0 mm 1 m/S 656 mmHg 52%
    13:00 +12°C° 0 mm 1 m/S 656 mmHg 51%
    14:00 +13°C° 0 mm 1 m/S 656 mmHg 51%
    15:00 +13°C° 0 mm 1 m/S 655 mmHg 51%
    16:00 +13°C° 0 mm 1 m/S 655 mmHg 50%
    17:00 +12°C° 0 mm 1 m/S 655 mmHg 50%
    18:00 +12°C° 0 mm 1 m/S 655 mmHg 49%
    19:00 +10°C° 0 mm 1 m/S 655 mmHg 53%
    20:00 +9°C° 0 mm 1 m/S 655 mmHg 56%
    21:00 +7°C° 0 mm 2 m/S 655 mmHg 59%
    22:00 +6°C° 0 mm 2 m/S 655 mmHg 61%
    23:00 +6°C° 0 mm 2 m/S 655 mmHg 62%

    übermorgen, 27 April, Samstag

    Zeit Temperatur Niederschläge Wind Luftdruck Luftfeuchtigkeit
    00:00 +5°C° 0 mm 2 m/S 655 mmHg 63%
    01:00 +5°C° 0 mm 2 m/S 655 mmHg 64%
    02:00 +5°C° 0 mm 2 m/S 655 mmHg 64%
    03:00 +5°C° 0 mm 1 m/S 654 mmHg 64%
    04:00 +6°C° 0 mm 1 m/S 655 mmHg 62%
    05:00 +6°C° 0 mm 1 m/S 655 mmHg 61%
    06:00 +6°C° 0 mm 1 m/S 655 mmHg 60%
    07:00 +8°C° 0 mm 1 m/S 655 mmHg 58%
    08:00 +9°C° 0 mm 1 m/S 655 mmHg 55%
    09:00 +11°C° 0 mm 1 m/S 655 mmHg 53%
    10:00 +12°C° 0 mm 2 m/S 655 mmHg 52%
    11:00 +13°C° 0 mm 2 m/S 655 mmHg 50%
    12:00 +13°C° 0 mm 2 m/S 655 mmHg 49%
    13:00 +14°C° 0 mm 2 m/S 655 mmHg 47%
    14:00 +14°C° 0 mm 2 m/S 654 mmHg 45%
    15:00 +15°C° 0 mm 2 m/S 654 mmHg 43%
    16:00 +14°C° 0 mm 2 m/S 654 mmHg 42%
    17:00 +13°C° 0 mm 1 m/S 653 mmHg 41%
    18:00 +13°C° 0 mm 1 m/S 653 mmHg 40%
    19:00 +12°C° 0 mm 1 m/S 653 mmHg 41%
    20:00 +10°C° 0 mm 1 m/S 653 mmHg 42%
    21:00 +9°C° 0 mm 1 m/S 653 mmHg 43%
    22:00 +9°C° 0 mm 1 m/S 653 mmHg 44%
    23:00 +8°C° 0 mm 1 m/S 653 mmHg 44%

    28 April, Sonntag

    Zeit Temperatur Niederschläge Wind Luftdruck Luftfeuchtigkeit
    00:00 +7°C° 0 mm 2 m/S 653 mmHg 45%
    01:00 +7°C° 0 mm 2 m/S 653 mmHg 48%
    02:00 +6°C° 0 mm 2 m/S 652 mmHg 51%
    03:00 +6°C° 0 mm 2 m/S 652 mmHg 54%
    04:00 +6°C° 0 mm 2 m/S 652 mmHg 55%
    05:00 +7°C° 0 mm 2 m/S 652 mmHg 56%
    06:00 +8°C° 0 mm 1 m/S 652 mmHg 57%
    07:00 +9°C° 0 mm 2 m/S 652 mmHg 53%
    08:00 +10°C° 0 mm 2 m/S 653 mmHg 50%
    09:00 +13°C° 0 mm 2 m/S 653 mmHg 46%
    10:00 +14°C° 0 mm 2 m/S 653 mmHg 47%
    11:00 +15°C° 0 mm 2 m/S 652 mmHg 47%
    12:00 +15°C° 0 mm 2 m/S 652 mmHg 47%
    13:00 +16°C° 0 mm 2 m/S 652 mmHg 46%
    14:00 +16°C° 0 mm 3 m/S 652 mmHg 46%
    15:00 +17°C° 0 mm 3 m/S 651 mmHg 46%
    16:00 +16°C° 0 mm 2 m/S 651 mmHg 46%
    17:00 +16°C° 0 mm 2 m/S 651 mmHg 47%
    18:00 +15°C° 0 mm 1 m/S 651 mmHg 47%
    19:00 +14°C° 0 mm 1 m/S 651 mmHg 50%
    20:00 +13°C° 0 mm 1 m/S 651 mmHg 54%
    21:00 +11°C° 0 mm 1 m/S 652 mmHg 57%
    22:00 +11°C° 0 mm 1 m/S 651 mmHg 58%
    23:00 +10°C° 0 mm 1 m/S 651 mmHg 60%

    29 April, Montag

    Zeit Temperatur Niederschläge Wind Luftdruck Luftfeuchtigkeit
    00:00 +10°C° 0 mm 1 m/S 651 mmHg 61%
    01:00 +9°C° 0 mm 1 m/S 651 mmHg 62%
    02:00 +9°C° 0 mm 1 m/S 651 mmHg 63%
    03:00 +9°C° 0 mm 1 m/S 651 mmHg 64%
    04:00 +9°C° 0 mm 1 m/S 651 mmHg 63%
    05:00 +10°C° 0 mm 1 m/S 651 mmHg 63%
    06:00 +10°C° 0 mm 1 m/S 652 mmHg 63%
    07:00 +10°C° 0 mm 2 m/S 652 mmHg 61%
    08:00 +13°C° 0 mm 2 m/S 652 mmHg 59%
    09:00 +15°C° 0 mm 2 m/S 653 mmHg 58%
    10:00 +15°C° 0 mm 2 m/S 653 mmHg 56%
    11:00 +16°C° 0 mm 3 m/S 652 mmHg 55%
    12:00 +17°C° 0 mm 3 m/S 652 mmHg 53%
    13:00 +17°C° 0.2 mm 3 m/S 652 mmHg 52%
    14:00 +18°C° 0.2 mm 3 m/S 652 mmHg 52%
    15:00 +18°C° 0.2 mm 3 m/S 651 mmHg 51%
    16:00 +17°C° 0.3 mm 3 m/S 651 mmHg 52%
    17:00 +17°C° 0.3 mm 2 m/S 651 mmHg 54%
    18:00 +16°C° 0.3 mm 2 m/S 651 mmHg 55%
    19:00 +15°C° 0.1 mm 2 m/S 651 mmHg 58%
    20:00 +14°C° 0.1 mm 1 m/S 651 mmHg 62%
    21:00 +12°C° 0.1 mm 1 m/S 651 mmHg 65%
    22:00 +12°C° 0 mm 1 m/S 651 mmHg 66%
    23:00 +11°C° 0 mm 1 m/S 650 mmHg 67%

    30 April, Dienstag

    Zeit Temperatur Niederschläge Wind Luftdruck Luftfeuchtigkeit
    00:00 +11°C° 0 mm 1 m/S 650 mmHg 68%
    01:00 +10°C° 0.1 mm 2 m/S 650 mmHg 69%
    02:00 +10°C° 0.1 mm 2 m/S 650 mmHg 70%
    03:00 +10°C° 0.1 mm 2 m/S 650 mmHg 70%
    04:00 +10°C° 0.1 mm 2 m/S 650 mmHg 71%
    05:00 +10°C° 0.1 mm 2 m/S 651 mmHg 71%
    06:00 +10°C° 0.1 mm 2 m/S 651 mmHg 71%
    07:00 +12°C° 0.1 mm 2 m/S 651 mmHg 68%
    08:00 +13°C° 0.1 mm 2 m/S 652 mmHg 65%
    09:00 +14°C° 0.1 mm 2 m/S 652 mmHg 62%
    10:00 +15°C° 0 mm 2 m/S 652 mmHg 59%
    11:00 +16°C° 0 mm 3 m/S 652 mmHg 56%
    12:00 +17°C° 0 mm 3 m/S 652 mmHg 54%
    13:00 +18°C° 0 mm 3 m/S 652 mmHg 50%
    14:00 +18°C° 0 mm 3 m/S 651 mmHg 47%
    15:00 +19°C° 0 mm 4 m/S 651 mmHg 44%
    16:00 +18°C° 0.2 mm 3 m/S 651 mmHg 46%
    17:00 +17°C° 0.2 mm 2 m/S 651 mmHg 49%
    18:00 +18°C° 0.2 mm 1 m/S 651 mmHg 52%
    19:00 +15°C° 0 mm 1 m/S 651 mmHg 55%
    20:00 +14°C° 0 mm 1 m/S 651 mmHg 58%
    21:00 +13°C° 0 mm 1 m/S 651 mmHg 60%
    22:00 +13°C° 0.1 mm 1 m/S 651 mmHg 61%
    23:00 +12°C° 0.1 mm 1 m/S 651 mmHg 62%
    Mehr zeigen